We konden geen weer-waarchuwingen ophalen. Ga rechtstreeks naar de Meteoalarm site : www.meteoalarm.eu en controleer daar .



Onweer radar Meer informatie blitzortung!


Regen radar Meer informatie rain snow radar


Bezoek onze andere website:

Template documentation
and downloads

And another site



15 daagse weersverwachting An Muileann gCearr (IE)

  • Overzicht
  • Per uur
  • 15 dagen
  • Extra
  • Vergelijk
  • Kaarten
  • Dagkaart
  • Meer »
  • Info
  • Statistieken
  • Directe link
    Temp 6h Neerslag Wind  
 06:15     20:53    Daglengte: 14:38 Vandaag
13:00
16°
 
1
19:00
17°
 
3
 06:16     20:51    Daglengte: 14:35 Morgen
01:00
14°
 
4
07:00
14°
0.3 mm
5
13:00
17°
1.2 mm
6
19:00
17°
 
7
 06:18     20:49    Daglengte: 14:31 Vrijdag 19 Aug
01:00
12°
 
5
07:00
12°
 
5
13:00
16°
 
7
19:00
16°
3.8 mm
8
 06:20     20:46    Daglengte: 14:26 Zaterdag 20 Aug
01:00
14°
 
7
07:00
14°
24.0 mm
8
Locatie info
Region: Leinster
Latitude: 53.5333°N
Longitude: -7.3500°E
96 masl
Temp/Neerslag /Baro Onweer/Dauwpunt
    Temp Baro 1h Neerslag Dauwpunt Wind UV Bewolking  
 06:15     20:53    Daglengte: 14:38 Vandaag
12:00
15°
1017.9 hPa
12%
8.7°
2
Windvlaag: -4.1 m/s
83%
13:00
16°
1017.6 hPa
14%
9.1°
1
Windvlaag: -3.7 m/s
73%
14:00
17°
1017.3 hPa
12%
9.6°
1
Windvlaag: -1.9 m/s
47%
15:00
18°
1016.9 hPa
12%
9.5°
1
Windvlaag: -1.7 m/s
61%
16:00
18°
1016.5 hPa
12%
9.1°
2
Windvlaag: 0.1 m/s
48%
17:00
18°
1016.5 hPa
12%
8.4°
3
Windvlaag: 1.6 m/s
70%
18:00
18°
1016.2 hPa
12%
7.7°
3
Windvlaag: 0.9 m/s
81%
19:00
17°
1015.8 hPa
61%
7.4°
3
Windvlaag: 1.2 m/s
84%
20:00
16°
1015.8 hPa
74%
7.9°
3
Windvlaag: 2 m/s
85%
21:00
15°
1015.9 hPa
12%
8.9°
3
Windvlaag: 2.4 m/s
85%
22:00
14°
1016.0 hPa
12%
9.3°
3
Windvlaag: 2.3 m/s
84%
23:00
14°
1015.7 hPa
14%
9.6°
2
Windvlaag: 2.3 m/s
83%
 06:16     20:51    Daglengte: 14:35 Morgen
00:00
14°
1015.2 hPa
14%
10.3°
3
Windvlaag: 4.9 m/s
84%
01:00
14°
1014.5 hPa
56%
10.7°
4
Windvlaag: 6.5 m/s
86%
02:00
14°
1013.8 hPa
23%
10.2°
4
Windvlaag: 6.8 m/s
86%
03:00
14°
1013.0 hPa
40%
10.3°
5
Windvlaag: 8 m/s
86%
04:00
14°
1012.2 hPa
16%
11.6°
5
Windvlaag: 8.6 m/s
86%
05:00
14°
1011.5 hPa
16%
12.6°
5
Windvlaag: 8.8 m/s
86%
06:00
14°
1011.1 hPa
76%
13.0°
5
Windvlaag: 8.7 m/s
86%
07:00
14°
1010.8 hPa 0.3 mm
82%
13.2°
5
Windvlaag: 8.6 m/s
85%
08:00
15°
1010.8 hPa
78%
13.3°
5
Windvlaag: 7.9 m/s
70%
09:00
16°
1010.6 hPa
69%
13.3°
5
Windvlaag: 7.8 m/s
74%
10:00
16°
1010.2 hPa 1.2 mm
77%
14.2°
5
Windvlaag: 7.9 m/s
76%
11:00
16°
1010.0 hPa
82%
15.2°
6
Windvlaag: 8.2 m/s
68%
12:00
17°
1009.5 hPa
80%
15.7°
6
Windvlaag: 7.7 m/s
84%
13:00
17°
1009.0 hPa
41%
16.5°
6
Windvlaag: 6.4 m/s
35%
14:00
19°
1008.5 hPa
80%
17.5°
7
Windvlaag: 6.9 m/s
19%
15:00
19°
1008.5 hPa
82%
17.0°
7
Windvlaag: 6.7 m/s
9%
16:00
19°
1008.2 hPa
75%
16.9°
8
Windvlaag: 6 m/s
16%
17:00
19°
1008.3 hPa
19%
15.9°
8
Windvlaag: 5.6 m/s
7%
18:00
18°
1008.8 hPa
19%
14.7°
8
Windvlaag: 4.8 m/s
8%
19:00
17°
1009.2 hPa
14%
12.1°
7
Windvlaag: 5.6 m/s
5%
20:00
16°
1009.6 hPa
14%
10.6°
7
Windvlaag: 4.1 m/s
5%
21:00
15°
1010.2 hPa
14%
9.3°
7
Windvlaag: 5.3 m/s
4%
22:00
14°
1010.7 hPa
14%
9.3°
6
Windvlaag: 5.3 m/s
4%
23:00
13°
1011.0 hPa
14%
8.8°
5
Windvlaag: 5.4 m/s
7%
 06:18     20:49    Daglengte: 14:31 Vrijdag 19 Aug
00:00
13°
1011.1 hPa
14%
8.6°
5
Windvlaag: 5.5 m/s
7%
01:00
12°
1011.2 hPa
14%
8.4°
5
Windvlaag: 6.9 m/s
10%
02:00
12°
1011.3 hPa
14%
8.5°
5
Windvlaag: 7.5 m/s
8%
03:00
12°
1011.2 hPa
14%
8.9°
5
Windvlaag: 7.9 m/s
9%
04:00
12°
1011.4 hPa
15%
9.0°
5
Windvlaag: 8.3 m/s
16%
05:00
12°
1011.5 hPa
55%
9.5°
5
Windvlaag: 8.4 m/s
61%
06:00
12°
1011.8 hPa
74%
9.6°
5
Windvlaag: 8.4 m/s
22%
07:00
12°
1012.1 hPa
50%
9.9°
5
Windvlaag: 8 m/s
21%
08:00
13°
1012.3 hPa
14%
10.0°
5
Windvlaag: 7 m/s
22%
09:00
13°
1012.5 hPa
15%
10.3°
6
Windvlaag: 9 m/s
65%
10:00
14°
1012.5 hPa
25%
9.4°
7
Windvlaag: 8.3 m/s
55%
11:00
15°
1012.4 hPa
26%
8.9°
7
Windvlaag: 7.2 m/s
66%
12:00
15°
1012.5 hPa
43%
10.3°
8
Windvlaag: 5.7 m/s
68%
13:00
16°
1012.8 hPa
100%
13.5°
7
Windvlaag: 5.9 m/s
48%
14:00
16°
1012.9 hPa 3.8 mm
100%
12.6°
7
Windvlaag: 6.1 m/s
8%
15:00
17°
1012.8 hPa
99%
11.1°
8
Windvlaag: 6.1 m/s
12%
16:00
17°
1012.6 hPa
83%
10.4°
8
Windvlaag: 6 m/s
13%
17:00
17°
1012.6 hPa
79%
9.3°
8
Windvlaag: 6 m/s
36%
18:00
17°
1012.8 hPa
28%
10.5°
8
Windvlaag: 6.3 m/s
46%
19:00
16°
1013.1 hPa
25%
11.2°
8
Windvlaag: 6.3 m/s
35%
20:00
15°
1013.3 hPa
21%
11.8°
6
Windvlaag: 4.7 m/s
48%
21:00
14°
1013.6 hPa
21%
12.1°
5
Windvlaag: 5.4 m/s
50%
22:00
14°
1013.3 hPa
21%
11.7°
5
Windvlaag: 5.7 m/s
70%
23:00
13°
1013.0 hPa
21%
12.3°
6
Windvlaag: 9 m/s
71%
 06:20     20:46    Daglengte: 14:26 Zaterdag 20 Aug
00:00
14°
1012.4 hPa
21%
12.4°
7
Windvlaag: 10.9 m/s
88%
01:00
14°
1011.9 hPa
21%
12.3°
7
Windvlaag: 11.4 m/s
95%
02:00
14°
1011.3 hPa 4.1 mm
22%
12.5°
8
Windvlaag: 11.5 m/s
93%
03:00
14°
1011.0 hPa 2.5 mm
97%
12.5°
8
Windvlaag: 11.6 m/s
95%
04:00
14°
1010.4 hPa 2.6 mm
100%
13.0°
8
Windvlaag: 10.6 m/s
77%
05:00
13°
1009.7 hPa 4.3 mm
100%
11.9°
8
Windvlaag: 13.4 m/s
100%
06:00
13°
1009.1 hPa 5.4 mm
100%
12.0°
8
Windvlaag: 13.5 m/s
97%
07:00
14°
1009.3 hPa 5.0 mm
100%
12.5°
8
Windvlaag: 13.7 m/s
66%
08:00
14°
1009.5 hPa 5.2 mm
100%
13.4°
7
Windvlaag: 11.7 m/s
62%
09:00
14°
1010.2 hPa
95%
13.4°
8
Windvlaag: 10.6 m/s
59%
10:00
14°
1010.8 hPa
29%
10.7°
8
Windvlaag: 10.1 m/s
26%
11:00
15°
1011.4 hPa
24%
10.2°
8
Windvlaag: 13.8 m/s
51%
Temp/Neerslag /Baro Onweer/Dauwpunt
    Temp Baro Neerslag Dauwpunt Wind Bewolking  
 06:15     20:53    Daglengte: 14:38 Vandaag
13:00
16°
1017.6 hPa   9.1°
1
73%
16:00
18°
1016.5 hPa   9.1°
2
48%
19:00
17°
1015.8 hPa   7.4°
3
84%
22:00
14°
1016.0 hPa   9.3°
3
84%
 06:16     20:51    Daglengte: 14:35 Morgen
01:00
14°
1014.5 hPa   10.7°
4
86%
04:00
14°
1012.2 hPa   11.6°
5
86%
07:00
14°
1010.8 hPa 0.3 mm 13.2°
5
85%
10:00
16°
1010.2 hPa 1.2 mm 14.2°
5
76%
13:00
17°
1009.0 hPa   16.5°
6
35%
16:00
19°
1008.2 hPa   16.9°
8
16%
19:00
17°
1009.2 hPa   12.1°
7
5%
22:00
14°
1010.7 hPa   9.3°
6
4%
 06:18     20:49    Daglengte: 14:31 Vrijdag 19 Aug
01:00
12°
1011.2 hPa   8.4°
5
10%
04:00
12°
1011.4 hPa   9.0°
5
16%
07:00
12°
1012.1 hPa   9.9°
5
21%
10:00
14°
1012.5 hPa   9.4°
7
55%
13:00
16°
1012.8 hPa   13.5°
7
48%
16:00
17°
1012.6 hPa 3.8 mm 10.4°
8
13%
19:00
16°
1013.1 hPa   11.2°
8
35%
22:00
14°
1013.3 hPa   11.7°
5
70%
 06:20     20:46    Daglengte: 14:26 Zaterdag 20 Aug
01:00
14°
1011.9 hPa   12.3°
7
95%
04:00
14°
1010.4 hPa 9.2 mm 13.0°
8
77%
07:00
14°
1009.3 hPa 14.7 mm 12.5°
8
66%
10:00
14°
1010.8 hPa 5.2 mm 10.7°
8
26%
13:00
16°
1012.0 hPa   8.1°
8
26%
16:00
19°
1012.9 hPa 14.6 mm 6.7°
8
0%
19:00
16°
1013.8 hPa 14.6 mm 7.9°
5
0%
22:00
11°
1014.3 hPa 14.6 mm 8.7°
3
1%
 06:22     20:44    Daglengte: 14:22 Zondag 21 Aug
01:00
12°
1014.0 hPa 14.7 mm 10.6°
2
1%
04:00
13°
1013.1 hPa 14.9 mm 12.2°
2
1%
07:00
13°
1013.3 hPa 15.6 mm 12.4°
2
1%
10:00
15°
1013.8 hPa 15.8 mm 11.6°
2
1%
13:00
17°
1013.9 hPa 15.8 mm 11.8°
4
1%
16:00
19°
1013.2 hPa 16.1 mm 12.3°
3
1%
19:00
18°
1012.9 hPa 16.1 mm 12.8°
1
1%
22:00
15°
1012.2 hPa 16.2 mm 11.1°
2
1%
 06:23     20:42    Daglengte: 14:19 Maandag 22 Aug
01:00
15°
1011.9 hPa 16.2 mm 12.6°
2
1%
04:00
12°
1010.7 hPa 16.2 mm 11.5°
2
1%
07:00
12°
1010.1 hPa 16.2 mm 11.6°
3
1%
10:00
16°
1009.4 hPa 16.2 mm 13.8°
5
1%
13:00
18°
1008.3 hPa 16.3 mm 13.5°
6
1%
16:00
16°
1007.2 hPa 17.6 mm 14.9°
7
1%
19:00
16°
1006.5 hPa 18.1 mm 14.8°
6
1%
22:00
16°
1007.0 hPa 19.8 mm 15.3°
4
1%
 06:25     20:40    Daglengte: 14:15 Dinsdag 23 Aug
01:00
15°
1006.6 hPa 19.9 mm 14.8°
3
1%
04:00
15°
1005.8 hPa 20.3 mm 14.4°
3
1%
07:00
15°
1005.5 hPa 20.5 mm 14.0°
3
1%
10:00
17°
1005.6 hPa 20.8 mm 15.3°
2
1%
13:00
19°
1005.2 hPa 21.6 mm 14.4°
3
1%
16:00
21°
1004.6 hPa 22.2 mm 13.0°
3
1%
19:00
18°
1005.0 hPa 22.3 mm 12.8°
2
1%
22:00
13°
1006.7 hPa 22.4 mm 12.1°
3
1%
 06:27     20:37    Daglengte: 14:10 Woensdag 24 Aug
01:00
12°
1007.3 hPa 22.6 mm 11.2°
2
1%
04:00
11°
1007.0 hPa 22.6 mm 10.4°
2
0%
07:00
12°
1007.1 hPa 23.1 mm 11.3°
3
1%
10:00
15°
1008.4 hPa   13.5°
3
1%
13:00
18°
1008.5 hPa 47.0 mm 13.2°
3
1%
19:00
16°
1011.1 hPa 51.9 mm 14.5°
5
1%
 06:29     20:35    Daglengte: 14:06 Donderdag 25 Aug
01:00
13°
1015.7 hPa 53.0 mm 11.6°
5
1%
07:00
12°
1018.4 hPa 53.0 mm 11.2°
4
1%
13:00
16°
1021.3 hPa 53.3 mm 10.6°
3
1%
19:00
17°
1022.2 hPa 53.5 mm 10.5°
3
1%
 06:30     20:33    Daglengte: 14:03 Vrijdag 26 Aug
01:00
10°
Voelt als: 8.6°
1024.6 hPa 53.5 mm 8.4°
2
0%
07:00
Voelt als: 7.4°
1024.7 hPa 53.5 mm 7.5°
2
0%
13:00
19°
1024.2 hPa 53.5 mm 8.8°
3
0%
19:00
19°
1023.8 hPa 53.5 mm 11.7°
2
0%
 06:32     20:30    Daglengte: 13:58 Zaterdag 27 Aug
01:00
11°
1025.5 hPa 53.5 mm 9.5°
2
0%
07:00
11°
1023.2 hPa 0.1 mm 9.7°
1
53%
13:00
18°
1023.0 hPa 0.2 mm 12.4°
2
67%
19:00
18°
1022.3 hPa 0.5 mm 13.0°
2
58%
 06:34     20:28    Daglengte: 13:54 Zondag 28 Aug
01:00
12°
1022.6 hPa 0.1 mm 10.8°
1
47%
07:00
11°
1021.7 hPa 0.7 mm 10.4°
1
47%
13:00
19°
1021.6 hPa 0.6 mm 13.2°
2
60%
19:00
18°
1020.9 hPa 0.5 mm 13.8°
2
61%
 06:36     20:26    Daglengte: 13:50 Maandag 29 Aug
01:00
13°
1021.4 hPa 0.4 mm 11.3°
1
58%
07:00
12°
1021.0 hPa 0.2 mm 10.8°
1
54%
13:00
19°
1021.3 hPa 0.3 mm 13.4°
1
63%
19:00
18°
1020.5 hPa 0.8 mm 14.1°
1
70%
 06:37     20:23    Daglengte: 13:46 Dinsdag 30 Aug
01:00
13°
1020.8 hPa 0.3 mm 11.4°
1
56%
07:00
12°
1020.2 hPa 0.3 mm 10.7°
1
63%
13:00
19°
1020.4 hPa 0.4 mm 13.0°
1
61%
19:00
17°
1020.0 hPa 0.7 mm 13.0°
1
61%
 06:39     20:21    Daglengte: 13:42 Woensdag 31 Aug
01:00
12°
1020.8 hPa 0.1 mm 10.2°
0
53%
07:00
10°
1020.0 hPa 0.2 mm 9.7°
0
49%
13:00
18°
1020.0 hPa 0.3 mm 12.1°
1
53%
19:00
17°
1019.0 hPa 0.6 mm 12.8°
1
57%
 06:41     20:19    Daglengte: 13:38 Donderdag 01 Sep
01:00
12°
1018.9 hPa 0.3 mm 10.5°
1
61%
07:00
11°
1017.8 hPa 0.3 mm 10.3°
1
68%
  CAPE Lifted Index Hail Supercell Tornado SRH 3km CL BTM PRES CL TOP PRES Swiss DWD icon SMHI TS
 06:15     20:53    Daglengte: 14:38 Vandaag
12:00 2 J/kg 9.8 K 0 % 0 % 0 % 0 m²/s² 0 0 19.28 3
13:00 9 J/kg 9.5 K 0 % 0 % 0 % 0 m²/s² 0 0 19.01 3
14:00 15 J/kg 9.5 K 0 % 0 % 0 % 0 m²/s² 0 0 19.01 3
15:00 15 J/kg 9.0 K 0 % 0 % 0 % 0 m²/s² 0 0 18.96 3
16:00 16 J/kg 9.0 K 0 % 0 % 0 % 0 m²/s² 0 0 19.47 3
17:00 7 J/kg 8.8 K 0 % 0 % 0 % 0 m²/s² 0 0 18.34 3
18:00 2 J/kg 9.3 K 0 % 0 % 0 % 0 m²/s² 0 0 16.38 3
19:00 0 J/kg 10.5 K 0 % 0 % 0 % 0 m²/s² 0 0 13.68 3
20:00 0 J/kg 10.8 K 0 % 0 % 0 % 0 m²/s² 0 0 11.43 3
21:00 0 J/kg 11.2 K 0 % 0 % 0 % 0 m²/s² 0 0 11.56 3
22:00 0 J/kg 11.5 K 0 % 0 % 0 % 0 m²/s² 0 0 12.37 3
23:00 0 J/kg 9.0 K 0 % 0 % 0 % 0 m²/s² 0 0 9.39 3
 06:16     20:51    Daglengte: 14:35 Morgen
00:00 0 J/kg 3.5 K 0 % 0 % 0 % 0 m²/s² 0 0 3.5 3
01:00 0 J/kg 3.3 K 0 % 0 % 0 % 0 m²/s² 0 0 3.78 3
02:00 0 J/kg 2.7 K 0 % 0 % 0 % 0 m²/s² 0 0 5.1 3
03:00 0 J/kg 2.5 K 0 % 0 % 0 % 0 m²/s² 0 0 5.68 3
04:00 0 J/kg 2.7 K 0 % 0 % 0 % 0 m²/s² 0 0 5.31 3
05:00 0 J/kg 3.1 K 0 % 0 % 0 % 0 m²/s² 0 0 5.95 3
06:00 0 J/kg 3.9 K 0 % 0 % 0 % 0 m²/s² 0 0 5.01 61
07:00 0 J/kg 4.9 K 0 % 0 % 0 % 0 m²/s² 0 0 6.79 61
08:00 1 J/kg 4.1 K 0 % 0 % 0 % 0 m²/s² 0 0 4.76 61
09:00 17 J/kg 3.2 K 0 % 0 % 0 % 0 m²/s² 0 0 3.2 3
10:00 14 J/kg 2.3 K 0 % 0 % 0 % 0 m²/s² 0 0 2.3 61
11:00 1 J/kg 1.5 K 0 % 0 % 0 % 0 m²/s² 0 0 1.59 61
12:00 0 J/kg 0.4 K 0 % 0 % 0 % 0 m²/s² 0 0 0.7 3
13:00 135 J/kg 0.0 K 0 % 0 % 0 % 0 m²/s² 0 0 1.26 3
14:00 478 J/kg -1.6 K 0 % 0 % 0 % 0 m²/s² 0 0 0.89 3
15:00 393 J/kg -1.1 K 0 % 0 % 0 % 0 m²/s² 0 0 2.98 80
16:00 83 J/kg 1.5 K 0 % 0 % 0 % 0 m²/s² 0 0 5.55 2
17:00 3 J/kg 5.2 K 0 % 0 % 0 % 0 m²/s² 0 0 12.16 2
18:00 7 J/kg 6.2 K 0 % 0 % 0 % 0 m²/s² 0 0 14.84 2
19:00 12 J/kg 6.7 K 0 % 0 % 0 % 0 m²/s² 0 0 15.01 2
20:00 7 J/kg 7.2 K 0 % 0 % 0 % 0 m²/s² 0 0 15.21 2
21:00 1 J/kg 8.2 K 0 % 0 % 0 % 0 m²/s² 0 0 15.94 2
22:00 0 J/kg 8.8 K 0 % 0 % 0 % 0 m²/s² 0 0 16.81 1
23:00 5 J/kg 8.6 K 0 % 0 % 0 % 0 m²/s² 0 0 18.05 0
 06:18     20:49    Daglengte: 14:31 Vrijdag 19 Aug
00:00 3 J/kg 8.4 K 0 % 0 % 0 % 0 m²/s² 0 0 17.04 1
01:00 0 J/kg 8.3 K 0 % 0 % 0 % 0 m²/s² 0 0 16.61 1
02:00 3 J/kg 8.1 K 0 % 0 % 0 % 0 m²/s² 0 0 15.27 1
03:00 1 J/kg 8.3 K 0 % 0 % 0 % 0 m²/s² 0 0 12.23 1
04:00 0 J/kg 7.5 K 0 % 0 % 0 % 0 m²/s² 0 0 10.35 1
05:00 0 J/kg 7.2 K 0 % 0 % 0 % 0 m²/s² 0 0 10.2 3
06:00 0 J/kg 7.2 K 0 % 0 % 0 % 0 m²/s² 0 0 9.87 2
07:00 5 J/kg 7.1 K 0 % 0 % 0 % 0 m²/s² 0 0 9.56 2
08:00 35 J/kg 6.2 K 0 % 0 % 0 % 0 m²/s² 0 0 8.72 2
09:00 57 J/kg 5.5 K 0 % 0 % 0 % 0 m²/s² 0 0 9.19 3
10:00 73 J/kg 5.1 K 0 % 0 % 0 % 0 m²/s² 0 0 13.26 3
11:00 79 J/kg 4.9 K 0 % 0 % 0 % 0 m²/s² 0 0 11.32 3
12:00 62 J/kg 4.8 K 0 % 0 % 0 % 0 m²/s² 0 0 10.23 3
13:00 51 J/kg 4.8 K 0 % 0 % 0 % 0 m²/s² 0 0 14.49 2
14:00 54 J/kg 4.4 K 0 % 0 % 0 % 0 m²/s² 0 0 13.22 80
15:00 116 J/kg 3.5 K 0 % 0 % 0 % 0 m²/s² 0 0 9.74 2
16:00 39 J/kg 4.6 K 0 % 0 % 0 % 0 m²/s² 0 0 10.03 2
17:00 65 J/kg 4.4 K 0 % 0 % 0 % 0 m²/s² 0 0 9.44 2
18:00 95 J/kg 3.5 K 0 % 0 % 0 % 0 m²/s² 0 0 8.03 2
19:00 128 J/kg 3.3 K 0 % 0 % 0 % 0 m²/s² 0 0 6.99 1
20:00 115 J/kg 3.3 K 0 % 0 % 0 % 0 m²/s² 0 0 5.82 1
21:00 108 J/kg 3.4 K 0 % 0 % 0 % 0 m²/s² 0 0 4.57 2
22:00 82 J/kg 3.3 K 0 % 0 % 0 % 0 m²/s² 0 0 3.84 1
23:00 34 J/kg 3.4 K 0 % 0 % 0 % 0 m²/s² 0 0 3.7 1
 06:20     20:46    Daglengte: 14:26 Zaterdag 20 Aug
00:00 40 J/kg 3.0 K 0 % 0 % 0 % 0 m²/s² 0 0 3.42 3
01:00 38 J/kg 2.4 K 0 % 0 % 0 % 0 m²/s² 0 0 2.7 3
02:00 29 J/kg 1.7 K 0 % 0 % 0 % 0 m²/s² 0 0 2.18 3
03:00 62 J/kg 0.9 K 0 % 0 % 0 % 0 m²/s² 0 0 1.38 61
04:00 143 J/kg 0.4 K 0 % 0 % 0 % 0 m²/s² 0 0 0.79 61
05:00 169 J/kg 0.5 K 0 % 0 % 0 % 0 m²/s² 0 0 0.95 61
06:00 187 J/kg 0.4 K 0 % 0 % 0 % 0 m²/s² 0 0 1.18 61
07:00 301 J/kg -0.5 K 0 % 0 % 0 % 0 m²/s² 0 0 1.36 80
08:00 339 J/kg -1.0 K 0 % 0 % 0 % 0 m²/s² 0 0 -0.49 80
09:00 59 J/kg 2.0 K 0 % 0 % 0 % 0 m²/s² 0 0 2.12 2
10:00 3 J/kg 3.3 K 0 % 0 % 0 % 0 m²/s² 0 0 5.34 2
11:00 12 J/kg 2.9 K 0 % 0 % 0 % 0 m²/s² 0 0 10.07 2
Temp Baro Wind Neerslag
  EWN Forecast EWN WRFDA DWD ICON FMI HIRLAM MET Norway GFS
 06:15     20:53    Daglengte: 14:38 Vandaag
13:00 16.0° 1017.6 hPa 1.3 m/s 0.0 mm 16.1° 1016.7 hPa 1.2 m/s 0.0 mm 16.2° 1017.7 hPa 0.7 m/s -2.0 mm 16.5° 1017.7 hPa 1.7 m/s 0.0 mm 13.6° 1018.7 hPa 1.6 m/s
16:00 18.0° 1016.5 hPa 2.1 m/s 0.0 mm 18.2° 1015.8 hPa 1.7 m/s 0.0 mm 18.0° 1016.5 hPa 3.3 m/s 0.0 mm 18.8° 1016.3 hPa 2.1 m/s 0.0 mm 16.5° 1017.6 hPa 1.2 m/s
19:00 17.0° 1015.8 hPa 3.1 m/s 0.0 mm 18.1° 1015.1 hPa 2.8 m/s 0.0 mm 16.9° 1015.5 hPa 3.8 m/s 0.0 mm 18.1° 1015.9 hPa 3.1 m/s 0.0 mm 17.0° 1016.5 hPa 1.7 m/s
22:00 14.3° 1016.0 hPa 2.6 m/s 0.0 mm 14.5° 1015.7 hPa 3.2 m/s 0.0 mm 14.3° 1016.2 hPa 1.8 m/s 0.0 mm 14.1° 1016.1 hPa 2.6 m/s 0.0 mm 12.1° 1016.7 hPa 2.5 m/s
 06:16     20:51    Daglengte: 14:35 Morgen
01:00 13.7° 1014.5 hPa 3.7 m/s 0.0 mm 12.6° 1014.5 hPa 3.8 m/s 0.2 mm 13.9° 1014.5 hPa 3.4 m/s 0.0 mm 13.9° 1014.7 hPa 3.6 m/s 0.0 mm 12.1° 1015.3 hPa 2.6 m/s
04:00 13.8° 1012.2 hPa 5.2 m/s 0.0 mm 12.6° 1012.5 hPa 5.3 m/s 0.7 mm 14.0° 1012.1 hPa 4.7 m/s 0.0 mm 14.3° 1012.6 hPa 5.2 m/s 0.0 mm 13.1° 1013.0 hPa 3.6 m/s
07:00 14.4° 1010.8 hPa 5.0 m/s 0.3 mm 13.8° 1011.2 hPa 4.8 m/s 3.6 mm 14.5° 1010.8 hPa 5.1 m/s 0.2 mm 15.0° 1011.5 hPa 4.1 m/s 0.0 mm 12.6° 1011.8 hPa 3.4 m/s
10:00 16.2° 1010.2 hPa 5.2 m/s 1.2 mm 16.3° 1010.3 hPa 5.5 m/s 5.6 mm 16.3° 1010.2 hPa 5.5 m/s 0.6 mm 16.5° 1010.8 hPa 4.5 m/s 0.0 mm 13.0° 1010.8 hPa 3.8 m/s
13:00 17.3° 1009.0 hPa 6.3 m/s 0.0 mm 17.1° 1008.5 hPa 5.1 m/s 22.8 mm 17.9° 1009.0 hPa 6.4 m/s 0.4 mm 17.0° 1009.6 hPa 6.8 m/s 0.0 mm 15.9° 1009.0 hPa 4.9 m/s
16:00 19.5° 1008.2 hPa 8.0 m/s 0.0 mm 20.4° 1008.0 hPa 7.8 m/s 26.4 mm 20.0° 1008.2 hPa 8.8 m/s 0.3 mm 19.4° 1008.2 hPa 5.2 m/s 0.0 mm 16.8° 1008.9 hPa 5.7 m/s
19:00 17.1° 1009.2 hPa 7.4 m/s 0.0 mm 17.4° 1009.1 hPa 7.1 m/s 26.7 mm 17.0° 1009.4 hPa 7.3 m/s 0.0 mm 18.1° 1008.3 hPa 7.1 m/s 0.0 mm 17.0° 1010.5 hPa 5.8 m/s
22:00 13.9° 1010.7 hPa 6.0 m/s 0.0 mm 11.9° 1010.4 hPa 4.9 m/s 26.7 mm 13.7° 1010.8 hPa 5.3 m/s 0.0 mm 15.2° 1010.8 hPa 6.1 m/s 0.0 mm 12.0° 1012.4 hPa 3.9 m/s
 06:18     20:49    Daglengte: 14:31 Vrijdag 19 Aug
01:00 12.4° 1011.2 hPa 5.1 m/s 0.0 mm 9.8° 1010.6 hPa 3.8 m/s 26.7 mm 11.6° 1011.2 hPa 5.2 m/s 0.0 mm 15.1° 1011.3 hPa 5.2 m/s 0.0 mm 14.1° 1012.5 hPa 5.2 m/s
04:00 11.8° 1011.4 hPa 4.9 m/s 0.0 mm 9.3° 1011.0 hPa 3.9 m/s 26.7 mm 10.9° 1011.4 hPa 4.8 m/s 0.0 mm 14.2° 1011.5 hPa 4.9 m/s 0.0 mm 13.2° 1012.1 hPa 4.4 m/s
07:00 11.9° 1012.1 hPa 5.0 m/s 0.0 mm 10.3° 1011.4 hPa 4.4 m/s 26.7 mm 11.6° 1012.2 hPa 5.5 m/s 0.0 mm 14.0° 1012.3 hPa 4.0 m/s 0.0 mm 12.1° 1013.1 hPa 4.4 m/s
10:00 14.3° 1012.5 hPa 6.7 m/s 0.0 mm 15.3° 1012.1 hPa 7.4 m/s 26.7 mm 14.4° 1012.5 hPa 6.3 m/s 0.0 mm 14.9° 1013.6 hPa 6.7 m/s
13:00 15.5° 1012.8 hPa 7.4 m/s 0.0 mm 13.3° 1012.5 hPa 6.2 m/s 28.5 mm 15.6° 1012.7 hPa 7.4 m/s 0.0 mm 16.3° 1013.7 hPa 6.9 m/s
16:00 17.2° 1012.6 hPa 7.8 m/s 3.8 mm 17.1° 1012.5 hPa 8.0 m/s 32.2 mm 16.6° 1012.6 hPa 7.4 m/s 0.4 mm 18.6° 1013.5 hPa 7.7 m/s
19:00 16.1° 1013.1 hPa 7.8 m/s 0.0 mm 16.5° 1012.6 hPa 8.2 m/s 32.2 mm 15.7° 1013.1 hPa 7.1 m/s 0.0 mm 16.8° 1013.8 hPa 5.7 m/s
22:00 13.7° 1013.3 hPa 4.8 m/s 0.0 mm 14.2° 1012.8 hPa 5.2 m/s 32.3 mm 12.8° 1014.0 hPa 4.8 m/s 0.0 mm 14.7° 1013.7 hPa 5.7 m/s
 06:20     20:46    Daglengte: 14:26 Zaterdag 20 Aug
01:00 13.6° 1011.9 hPa 7.1 m/s 0.0 mm 13.9° 1011.6 hPa 7.2 m/s 34.0 mm 11.7° 1012.8 hPa 5.3 m/s 0.0 mm 14.5° 1012.7 hPa 6.7 m/s
04:00 13.9° 1010.4 hPa 7.9 m/s 9.2 mm 14.3° 1010.1 hPa 7.9 m/s 35.2 mm 12.3° 1010.2 hPa 7.1 m/s 0.5 mm 13.8° 1011.1 hPa 7.4 m/s
07:00 13.5° 1009.3 hPa 7.6 m/s 14.7 mm 14.3° 1010.1 hPa 7.8 m/s 38.5 mm 13.3° 1009.1 hPa 7.5 m/s 2.8 mm 13.6° 1011.4 hPa 6.5 m/s
10:00 14.1° 1010.8 hPa 8.4 m/s 5.2 mm 14.2° 1011.4 hPa 5.4 m/s 53.2 mm 14.1° 1010.7 hPa 9.1 m/s 0.7 mm 14.3° 1012.0 hPa 6.0 m/s
13:00 16.0° 1012.0 hPa 8.1 m/s 0.0 mm 17.4° 1012.0 hPa 7.5 m/s 59.9 mm 15.7° 1012.0 hPa 8.2 m/s 0.0 mm 18.4° 1012.6 hPa 7.3 m/s
16:00 18.5° 1012.9 hPa 7.5 m/s 14.6 mm 18.5° 1012.9 hPa 7.5 m/s 14.6 mm
19:00 16.1° 1013.8 hPa 5.2 m/s 14.6 mm 16.1° 1013.8 hPa 5.2 m/s 14.6 mm
22:00 11.3° 1014.3 hPa 3.3 m/s 14.6 mm 11.3° 1014.3 hPa 3.3 m/s 14.6 mm
 06:22     20:44    Daglengte: 14:22 Zondag 21 Aug
01:00 12.2° 1014.0 hPa 2.3 m/s 14.7 mm 12.2° 1014.0 hPa 2.3 m/s 14.7 mm
04:00 12.7° 1013.1 hPa 1.7 m/s 14.9 mm 12.7° 1013.1 hPa 1.7 m/s 14.9 mm
07:00 12.9° 1013.3 hPa 1.6 m/s 15.6 mm 12.9° 1013.3 hPa 1.5 m/s 15.6 mm
10:00 15.0° 1013.8 hPa 2.3 m/s 15.8 mm 15.0° 1013.8 hPa 2.3 m/s 15.7 mm
13:00 16.6° 1013.9 hPa 3.5 m/s 15.8 mm 16.6° 1013.9 hPa 3.5 m/s 15.8 mm
16:00 18.9° 1013.2 hPa 3.0 m/s 16.1 mm 18.9° 1013.2 hPa 3.0 m/s 16.1 mm
19:00 17.6° 1012.9 hPa 1.1 m/s 16.1 mm 17.6° 1012.9 hPa 1.1 m/s 16.1 mm
22:00 14.8° 1012.2 hPa 2.1 m/s 16.2 mm 14.8° 1012.2 hPa 2.1 m/s 16.2 mm
 06:23     20:42    Daglengte: 14:19 Maandag 22 Aug
01:00 14.8° 1011.9 hPa 1.8 m/s 16.2 mm 14.8° 1011.9 hPa 1.8 m/s 16.2 mm
04:00 12.3° 1010.7 hPa 2.4 m/s 16.2 mm 12.3° 1010.7 hPa 2.4 m/s 16.2 mm
07:00 12.4° 1010.1 hPa 2.7 m/s 16.2 mm 12.4° 1010.1 hPa 2.7 m/s 16.2 mm
10:00 16.1° 1009.4 hPa 4.5 m/s 16.2 mm 16.1° 1009.4 hPa 4.5 m/s 16.2 mm
13:00 17.5° 1008.3 hPa 5.8 m/s 16.3 mm 17.5° 1008.3 hPa 5.8 m/s 16.3 mm
16:00 16.4° 1007.2 hPa 6.8 m/s 17.6 mm 16.4° 1007.2 hPa 6.8 m/s 17.6 mm
19:00 16.4° 1006.5 hPa 6.4 m/s 18.1 mm 16.4° 1006.5 hPa 6.4 m/s 18.1 mm
22:00 15.7° 1007.0 hPa 4.2 m/s 19.8 mm 15.7° 1007.0 hPa 4.2 m/s 19.8 mm
 06:25     20:40    Daglengte: 14:15 Dinsdag 23 Aug
01:00 15.1° 1006.6 hPa 3.3 m/s 19.9 mm 15.1° 1006.6 hPa 3.3 m/s 19.9 mm
04:00 14.7° 1005.8 hPa 3.0 m/s 20.3 mm 14.7° 1005.8 hPa 3.0 m/s 20.3 mm
07:00 14.7° 1005.5 hPa 2.6 m/s 20.5 mm 14.7° 1005.5 hPa 2.6 m/s 20.5 mm
10:00 16.8° 1005.6 hPa 1.9 m/s 20.8 mm 16.8° 1005.6 hPa 1.9 m/s 20.8 mm
13:00 19.5° 1005.2 hPa 2.6 m/s 21.6 mm 19.5° 1005.2 hPa 2.6 m/s 21.6 mm
16:00 20.7° 1004.6 hPa 3.3 m/s 22.2 mm 20.7° 1004.6 hPa 3.3 m/s 22.2 mm
19:00 18.2° 1005.0 hPa 2.1 m/s 22.3 mm 18.2° 1005.0 hPa 2.1 m/s 22.3 mm
22:00 12.9° 1006.7 hPa 2.9 m/s 22.4 mm 12.9° 1006.7 hPa 2.9 m/s 22.4 mm
 06:27     20:37    Daglengte: 14:10 Woensdag 24 Aug
01:00 11.6° 1007.3 hPa 2.5 m/s 22.6 mm 11.6° 1007.3 hPa 2.5 m/s 22.6 mm
04:00 10.7° 1007.0 hPa 2.5 m/s 22.6 mm 10.7° 1007.0 hPa 2.5 m/s 22.6 mm
07:00 11.8° 1007.1 hPa 2.8 m/s 23.1 mm 11.8° 1007.1 hPa 2.8 m/s 23.1 mm
10:00 14.7° 1008.4 hPa 3.4 m/s 23.3 mm 14.7° 1008.4 hPa 3.4 m/s 23.3 mm
13:00 18.3° 1008.5 hPa 3.2 m/s 23.7 mm 18.3° 1008.5 hPa 3.2 m/s 23.7 mm
19:00 15.9° 1011.1 hPa 4.7 m/s 26.5 mm 15.9° 1011.1 hPa 4.7 m/s 26.5 mm
 06:29     20:35    Daglengte: 14:06 Donderdag 25 Aug
01:00 12.6° 1015.7 hPa 4.7 m/s 26.5 mm 12.6° 1015.7 hPa 4.7 m/s 26.5 mm
07:00 12.1° 1018.4 hPa 4.1 m/s 26.6 mm 12.1° 1018.4 hPa 4.1 m/s 26.6 mm
13:00 16.5° 1021.3 hPa 3.2 m/s 26.6 mm 16.5° 1021.3 hPa 3.2 m/s 26.6 mm
19:00 17.3° 1022.2 hPa 2.7 m/s 26.8 mm 17.3° 1022.2 hPa 2.7 m/s 26.8 mm
 06:30     20:33    Daglengte: 14:03 Vrijdag 26 Aug
01:00 9.5° 1024.6 hPa 2.1 m/s 26.8 mm 9.5° 1024.6 hPa 2.1 m/s 26.8 mm
07:00 8.4° 1024.7 hPa 1.9 m/s 26.8 mm 8.4° 1024.7 hPa 1.9 m/s 26.8 mm
13:00 18.9° 1024.2 hPa 2.7 m/s 26.8 mm 18.9° 1024.2 hPa 2.7 m/s 26.8 mm
19:00 18.5° 1023.8 hPa 2.3 m/s 26.8 mm 18.5° 1023.8 hPa 2.3 m/s 26.8 mm
 06:32     20:30    Daglengte: 13:58 Zaterdag 27 Aug
01:00 10.6° 1025.5 hPa 2.1 m/s 26.8 mm 10.6° 1025.5 hPa 2.1 m/s 26.8 mm
07:00 10.7° 1023.2 hPa 1.1 m/s 0.1 mm
13:00 18.3° 1023.0 hPa 1.6 m/s 0.2 mm
19:00 17.9° 1022.3 hPa 1.7 m/s 0.5 mm
 06:34     20:28    Daglengte: 13:54 Zondag 28 Aug
01:00 12.1° 1022.6 hPa 1.3 m/s 0.1 mm
07:00 11.2° 1021.7 hPa 1.3 m/s 0.7 mm
13:00 19.1° 1021.6 hPa 1.6 m/s 0.6 mm
19:00 18.0° 1020.9 hPa 1.6 m/s 0.5 mm
 06:36     20:26    Daglengte: 13:50 Maandag 29 Aug
01:00 12.6° 1021.4 hPa 1.4 m/s 0.4 mm
07:00 11.7° 1021.0 hPa 1.2 m/s 0.2 mm
13:00 18.9° 1021.3 hPa 0.9 m/s 0.3 mm
19:00 18.2° 1020.5 hPa 0.8 m/s 0.8 mm
 06:37     20:23    Daglengte: 13:46 Dinsdag 30 Aug
01:00 12.7° 1020.8 hPa 0.5 m/s 0.3 mm
07:00 11.7° 1020.2 hPa 0.6 m/s 0.3 mm
13:00 19.0° 1020.4 hPa 0.6 m/s 0.4 mm
19:00 17.4° 1020.0 hPa 0.8 m/s 0.7 mm
 06:39     20:21    Daglengte: 13:42 Woensdag 31 Aug
01:00 11.7° 1020.8 hPa 0.4 m/s 0.1 mm
07:00 10.5° 1020.0 hPa 0.4 m/s 0.2 mm
13:00 18.5° 1020.0 hPa 1.1 m/s 0.3 mm
19:00 17.4° 1019.0 hPa 0.8 m/s 0.6 mm
 06:41     20:19    Daglengte: 13:38 Donderdag 01 Sep
01:00 12.1° 1018.9 hPa 0.8 m/s 0.3 mm
07:00 11.2° 1017.8 hPa 1.0 m/s 0.3 mm
FMI Hirlam - 7.5 km EWN WRFDA - 12 km DWD ICON - 7 km GFS - 25 km Basiskaart






























































Updatetijd (Europe/Amsterdam) Resolutie Lengte Stap
FMI Hirlam 07:15, 13:15, 19:15, 01:15 7.5 km 49h 1h
EWN WRFDA 10:15, 16:15, 22:15, 04:15 12 km 73h 1h
DWD ICON 11:45, 17:45, 23:45, 05:45 7 km 75h 1h
GFS 08:15, 14:15, 20:15, 02:15 25 km 237h 3h
30+ mm
25-30 mm
20-25 mm
15-20 mm
10-15 mm
6-10 mm
4-6 mm
2-4 mm
1-2 mm
0.5-1 mm
0.2-0.5 mm
0.1-0.2 mm
30+ mm
25-30 mm
20-25 mm
15-20 mm
10-15 mm
6-10 mm
4-6 mm
2-4 mm
1-2 mm
0.5-1 mm
0.2-0.5 mm
0.1-0.2 mm
Sneeuwval
Natte sneeuw
Hagel
Vorst
30+ mm
25-30 mm
20-25 mm
15-20 mm
10-15 mm
6-10 mm
4-6 mm
2-4 mm
1-2 mm
0.5-1 mm
0.2-0.5 mm
0.1-0.2 mm
Sneeuwval
Natte sneeuw
Hagel
Vorst
Onweer
50 mm
40 mm
30 mm
26 mm
22 mm
18 mm
14 mm
10 mm
9 mm
8 mm
7 mm
6 mm
5 mm
4.5 mm
4 mm
3.5 mm
3 mm
2.5 mm
2 mm
1.5 mm
1 mm
0.8 mm
0.6 mm
0.4 mm
0.2 mm
0.05 mm
35°
30°
25°
20°
15°
10°
-5°
-10°
-15°
-20°
-25°
-30°
-35°
33> m/s
29 m/s
25 m/s
21 m/s
17 m/s
14 m/s
11 m/s
8 m/s
5 m/s
3 m/s
0 m/s
2600 J/kg
2400 J/kg
2200 J/kg
2000 J/kg
1800 J/kg
1600 J/kg
1400 J/kg
1200 J/kg
1000 J/kg
800 J/kg
600 J/kg
400 J/kg
200 J/kg
70 dBZ
65 dBZ
60 dBZ
55 dBZ
50 dBZ
45 dBZ
40 dBZ
35 dBZ
30 dBZ
25 dBZ
20 dBZ
15 dBZ
10 dBZ
5 dBZ
-1 K
-2 K
-3 K
-4 K
-5 K
-6 K
-7 K
-8 K
-9 K
950 m²/s²
900 m²/s²
850 m²/s²
800 m²/s²
750 m²/s²
700 m²/s²
650 m²/s²
600 m²/s²
550 m²/s²
500 m²/s²
450 m²/s²
400 m²/s²
350 m²/s²
300 m²/s²
250 m²/s²
200 m²/s²
150 m²/s²
100 m²/s²
46 m/s
44 m/s
42 m/s
40 m/s
38 m/s
36 m/s
34 m/s
32 m/s
30 m/s
28 m/s
26 m/s
24 m/s
22 m/s
20 m/s
16 m/s
12 m/s
8 m/s
4 m/s
30 m/s
28 m/s
26 m/s
24 m/s
22 m/s
20 m/s
18 m/s
16 m/s
14 m/s
12 m/s
10 m/s
8 m/s
6 m/s
4 m/s
2 m/s
3.0
2.8
2.6
2.4
2.2
2.0
1.8
1.6
1.4
1.2
1.0
0.8
0.6
0.4
0.2
15
14
13
12
11
10
9
8
7
6
5
4
3
2
1
90%
80%
70%
60%
50%
40%
30%
20%
10%
42
40
38
36
34
32
30
28
26
24
22
20
18
16
14
12
90+ cm
80-90 cm
70-80 cm
60-70 cm
50-60 cm
40-50 cm
30-40 cm
20-30 cm
10-20 cm
1-10 cm
Sneeuwval
Natte sneeuw
Regen
>120 mm
115 mm
110 mm
105 mm
100 mm
95 mm
90 mm
85 mm
80 mm
75 mm
70 mm
65 mm
60 mm
55 mm
50 mm
45 mm
45 mm
40 mm
35 mm
30 mm
25 mm
20 mm
15 mm
10 mm
5 mm
0.1 mm
960 hPa
880 hPa
800 hPa
720 hPa
640 hPa
560 hPa
584 gpdm
568 gpdm
552 gpdm
536 gpdm
520 gpdm
504 gpdm
488 gpdm
Extreem zwaar Noodweer Kans op onweer
15% 15% 5% 50% 15%

Dag